{"data":{"norad_id":48150,"epoch":"2026-09-19T19:51:44.579520Z","epoch_age_seconds":91735,"freshness":"FRESH","line1":"1 48150U 21027BL  26262.82759930 -.00000653  00000+0 -92652-5 0  9995","line2":"2 48150  53.1598 329.2846 0002005  45.1628 314.9537 15.31700230302434","mean_motion":15.3170023,"eccentricity":0.0002005,"inclination_deg":53.1598,"raan_deg":329.2846,"arg_perigee_deg":45.1628,"mean_anomaly_deg":314.9537,"bstar":-9.2652e-6,"rev_number":30243,"period_min":94.013173844075,"perigee_km":469.36610990762,"apogee_km":472.11250930778,"semimajor_km":6848.8763096077,"source":"CELESTRAK","updated_at":"2026-09-20T09:00:38.926731Z"}}